SKYSAT-C10

Last updated on Mon Sep 21 2026 00:02:46 GMT+0000 (Coordinated Universal Time)

1 42988U 17068B 26263.63762436 .00007086 00000+0 20355-3 0 9997 2 42988 97.4630 41.5998 0001315 87.4852 272.6543 15.36147688497000
UTC large
Height (km)
Speed (km/s)
/
Latitude / Longitude
Inclination (degrees)
Orbital Period (minutes)
Azimuth
Elevation
Range (km)
Doppler Factor

Next 0 passes for location: London (51.5072 / 0.1276)

No passes found over London.
SKYSAT-C10